This is the latest recevied weather packets stored in our database for station/object N9BSW. If no packets are shown the sender has not sent any weather packets the latest 1 day(s).
| Time | Temp. | Humidity | Pressure | Rain* | Wind** | Luminosity | Snow |
|---|---|---|---|---|---|---|---|
| 1778086343 | 13.89° C | 53% | 1014.6 hPa | 0 mm | - | 253 W/m² | - |
| 1778085737 | 13.89° C | 53% | 1014.6 hPa | 0 mm | - | 238 W/m² | - |
| 1778085434 | 14.44° C | 59% | 1014.4 hPa | 0 mm | - | 286 W/m² | - |
| 1778083311 | 14.44° C | 52% | 1013.8 hPa | 0 mm | - | 460 W/m² | - |
| 1778081265 | 13.33° C | 66% | 1014 hPa | 0 mm | - | 331 W/m² | - |
| 1778077330 | 13.33° C | 70% | 1013.7 hPa | 0 mm | - | 303 W/m² | - |
| 1778077028 | 13.33° C | 71% | 1013.5 hPa | 0 mm | - | 324 W/m² | - |
| 1778076726 | 13.33° C | 78% | 1013.5 hPa | 0 mm | - | 614 W/m² | - |
| 1778076120 | 12.78° C | 75% | 1013.4 hPa | 0 mm | - | 269 W/m² | - |
| 1778075817 | 12.78° C | 78% | 1013.3 hPa | 0 mm | - | 274 W/m² | - |
| 1778075513 | 11.67° C | 82% | 1013.4 hPa | 0 mm | - | 239 W/m² | - |
| 1778074300 | 11.11° C | 85% | 1012.8 hPa | 0 mm | - | 366 W/m² | - |
| 1778073694 | 10° C | 91% | 1013.2 hPa | 0 mm | - | 226 W/m² | - |
| 1778071273 | 9.44° C | 96% | 1013.1 hPa | 0 mm | - | 132 W/m² | - |
| 1778070669 | 8.89° C | 97% | 1013 hPa | 0 mm | - | 101 W/m² | - |
| 1778070365 | 8.33° C | 98% | 1013 hPa | 0 mm | - | 65 W/m² | - |
| 1778069155 | 8.89° C | 98% | 1012.8 hPa | 0 mm | - | 52 W/m² | - |
| 1778068248 | 7.22° C | 99% | 1012.2 hPa | 0 mm | - | 52 W/m² | - |
| 1778067341 | 6.67° C | 98% | 1011.9 hPa | 0 mm | - | 37 W/m² | - |
| 1778067038 | 6.67° C | 98% | 1012.3 hPa | 0 mm | - | 35 W/m² | - |
| 1778064615 | 6.67° C | 97% | 1011 hPa | 0 mm | - | 7 W/m² | - |
| 1778064313 | 6.67° C | 97% | 1011 hPa | 0 mm | - | 5 W/m² | - |
| 1778063404 | 7.22° C | 97% | 1010.9 hPa | 0 mm | - | 1 W/m² | - |
| 1778062193 | 7.22° C | 97% | 1010.3 hPa | 0 mm | - | 0 W/m² | - |
| 1778060983 | 7.22° C | 97% | 1011.1 hPa | 0 mm | - | 0 W/m² | - |
* Rain latest hour (hover to see other rain measurements)
** Current wind speed in m/s (hover to see current wind gust speed)